Location: Chandrammap?lem
(16.9200°N, 81.0051°E)
Time: 06:51:50
(UTC+00:00)

Cosmos 1634 Rocket - Pass Details

Date: 29 May 2024
Orbit: 959 x 992 km, 82.9° (Epoch: 19 June)

Event Time Altitude Azimuth Distance (km) Brightness Sun altitude
Rises 14:31:58 0° 9° (N) 3,657 7.3 -19.3°
Reaches altitude 10° 14:34:41 10° 17° (NNE) 2,704 6.5 -19.9°
Maximum altitude 14:40:22 38° 84° (E) 1,430 4.5 -21.1°
Enters shadow 14:41:06 37° 100° (E) 1,460 4.4 -21.2°
